Voltar ao catálogo

WILDFIRE 4

AtivoCiênciaPO
NORAD 57756·PAYLOAD·🇺🇸 United States

Lançado Sep 2, 2023 de Vandenberg Space Force Base

Loading…

Próximas Passagens (próximas 24 horas)

TLE

AtualizadoSource: Space-Track

Época: Sep 14, 2026, 11:41 UTC

1 57756U 23133A   26257.48730930  .00000073  00000-0  53016-4 0  9997
2 57756  80.9987 280.3208 0011006 112.4056 247.8269 13.86373113153499

Acompanhe WILDFIRE 4 em tempo real com AllMySat

Download on the App Store